Probability
0 0 0 0 0 0 0 0 0 0 0 0 0 0 0 0 0 0 0 0 0 0 0 0 0 0 0 0 0 0 0 0 0 0 0 0 0 0 0 0 0 0 0 0
0 0 0 0 0 0 0 0 0 0 0 0 0 0 0 0 0 0 0 0 0 0 0 0 0 0 0 0 0 0 0 0 0 0 0 0 0 0 0 0 0 0 0 0
0 0 0 0 0 0 0 0 0 0 0 0 0 0 0 0 0 0 0 0 0 0 0 0 0 0 0 0 0 0 0 0 0 0 0 0 0 0 0 0 0 0 0 0
0 0 0 0 0 0 0 0 0 0 0 0 0 0 0 0 0 0 0 0 0 0 0 0 0 0 0 0 0 0 0 0 0 0 0 0 0 0 0 0 0 0 0 0
0 0 0 0 0 0 0 0 0 0 0 0 0 0 0 0 0 0 0 0 0 0 0 0 0 0 0 0 0 0 0 0 0 0 0 0 0 0 0 0 0 0 0 0
0 0 0 0 0 0 0 0 0 0 0 0 0 0 0 0 0 0 0 0 0 0 0 0 0 0 0 0 0 0 0 0 0 0 0 0 0 0 0 0 0 0 0 0
0 0 0 0 0 0 0 0 0 0 0 0 0 0 0 0 0 0 0 0 0 0 0 0 0 0 0 0 0 0 0 0 0 0 0 0 0 0 0 0 0 0 0 0
0 0 0 0 0 0 0 0 0 0 0 0 0 0 0 0 0 0 0 0 0 0 0 0 0 0 0 0 0 0 0 0 0 0 0 0 0 0 0 0 0 0 0 0
0 0 0 0 0 0 0 0 0 0 0 0 0 0 0 0 0 0 0 0 0 0 0 0 0 0 0 0 0 0 0 0 0 0 0 0 0 0 0 0 0 0 0 0
0 0 0 0 0 0 0 0 0 0 0 0 0 0 0 0 0 0 0 0 0 0 0 0 0 0 0 0 0 0 0 0 0 0 0 0 0 0 0 0 0 0 0 0
0 0 0 0 0 0 0 0 0 0 0 0 0 0 0 0 0 0 0 0 0 0 0 0 0 0 0 0 0 0 0 0 0 0 0 0 0 0 0 0 0 0 0 0
0 0 0 0 0 0 0 0 0 0 0 0 0 0 0 0 0 0 0 0 0 0 0 0 0 0 0 0 0 0 0 0 0 0 0 0 0 0 0 0 0 0 0 0
0 0 0 0 0 0 0 0 0 0 0 0 0 0 0 0 0 0 0 0 0 0 0 0 0 0 0 0 0 0 0 0 0 0 0 0 0 0 0 0 0 0 0 0
0 0 0 0 0 0 0 0 0 0 0 0 0 0 0 0 0 0 0 0 0 0 0 0 0 0 0 0 0 0 0 0 0 0 0 0 0 0 0 0 0 0 0 0
0 0 0 0 0 0 0 0 0 0 0 0 0 0 0 0 0 0 0 0 0 0 0 0 0 0 0 0 0 0 0 0 0 0 0 0 0 0 0 0 0 0 0 0
0 0 0 0 0 0 0 0 0 0 0 0 0 0 0 0 0 0 0 0 0 0 0 0 0 0 0 0 0 0 0 0 0 0 0 0 0 0 0 0 0 0 0 0
0 0 0 0 0 0 0 0 0 0 0 0 0 0 0 0 0 0 0 0 0 0 0 0 0 0 0 0 0 0 0 0 0 0 0 0 0 0 0 0 0 0 0 0
0 0 0 0 0 0 0 0 0 0 0 0 0 0 0 0 0 0 0 0 0 0 0 0 0 0 0 0 0 0 0 0 0 0 0 0 0 0 0 0 0 0 0 0
0 0 0 0 0 0 0 0 0 0 0 0 0 0 0 0 0 0 0 0 0 0 0 0 0 0 0 0 0 0 0 0 0 0 0 0 0 0 0 0 0 0 0 0
0 0 0 0 0 0 0 0 0 0 0 0 0 0 0 0 0 0 0 0 0 0 0 0 0 0 0 0 0 0 0 0 0 0 0 0 0 0 0 0 0 0 0 0
0 0 0 0 0 0 0 0 0 0 0 0 0 0 0 0 0 0 0 0 0 0 0 0 0 0 0 0 0 0 0 0 0 0 0 0 0 0 0 0 0 0 0 0
0 0 0 0 0 0 0 0 0 0 0 0 0 0 0 0 0 0 0 0 0 0 0 0 0 0 0 0 0 0 0 0 0 0 0 0 0 0 0 0 0 0 0 0
0 0 0 0 0 0 0 0 0 0 0 0 0 0 0 0 0 0 0 0 0 0 0 0 0 0 0 0 0 0 0 0 0 0 0 0 0 0 0 0 0 0 0 0
0 0 0 0 0 0 0 0 0 0 0 0 0 0 0 0 0 0 0 0 0 0 0 0 0 0 0 0 0 0 0 0 0 0 0 0 0 0 0 0 0 0 0 0
0 0 0 0 0 0 0 0 0 0 0 0 0 0 0 0 0 0 0 0 0 0 0 0 0 0 0 0 0 0 0 0 0 0 0 0 0 0 0 0 0 0 0 0
0 0 0 0 0 0 0 0 0 0 0 0 0 0 0 0 0 0 0 0 0 0 0 0 0 0 0 0 0 0 0 0 0 0 0 0 0 0 0 0 0 0 0 0
0 0 0 0 0 0 0 0 0 0 0 0 0 0 0 0 0 0 0 0 0 0 0 0 0 0 0 0 0 0 0 0 0 0 0 0 0 0 0 0 0 0 0 0
Height
5900 5901 5900 5900 5899 5898 5896 5894 5892 5890 5887 5884 5880 5876 5871 5867 5862 5857 5852 5847 5841 5836 5830 5824 5818 5811 5806 5800 5794 5788 5782 5776 5771 5765 5760 5755 5751 5747 5743 5740 5738 5736 5734 5733
5900 5900 5899 5899 5898 5897 5895 5894 5892 5889 5887 5884 5880 5876 5872 5868 5863 5859 5854 5849 5844 5838 5832 5827 5821 5815 5809 5803 5797 5791 5786 5780 5774 5768 5763 5758 5753 5749 5745 5742 5739 5736 5734 5732
5899 5898 5898 5898 5897 5896 5895 5893 5891 5889 5887 5883 5880 5876 5872 5868 5864 5860 5855 5851 5845 5840 5835 5829 5824 5818 5812 5807 5801 5795 5789 5783 5778 5772 5766 5761 5756 5751 5747 5744 5740 5737 5735 5733
5897 5898 5898 5899 5896 5895 5894 5892 5890 5888 5886 5883 5880 5877 5873 5869 5865 5861 5857 5852 5847 5842 5837 5832 5826 5821 5815 5810 5804 5798 5793 5787 5781 5775 5770 5765 5760 5755 5750 5746 5743 5739 5736 5734
5896 5896 5896 5896 5895 5894 5893 5891 5889 5887 5885 5883 5880 5876 5873 5870 5866 5862 5858 5853 5849 5844 5839 5834 5829 5823 5818 5813 5807 5802 5796 5791 5785 5779 5774 5769 5764 5759 5754 5750 5745 5742 5739 5736
5895 5894 5895 5895 5894 5892 5892 5890 5888 5886 5884 5882 5879 5876 5874 5870 5866 5862 5858 5854 5850 5846 5841 5836 5831 5826 5821 5816 5811 5805 5800 5795 5789 5783 5778 5773 5768 5763 5758 5754 5749 5745 5742 5739
5892 5892 5892 5892 5891 5891 5891 5890 5887 5885 5883 5880 5878 5876 5873 5869 5866 5862 5859 5855 5851 5847 5842 5838 5834 5829 5824 5819 5814 5809 5804 5799 5793 5788 5782 5777 5772 5767 5762 5758 5753 5749 5745 5742
5889 5889 5891 5889 5888 5888 5887 5886 5884 5883 5881 5879 5876 5874 5871 5868 5865 5862 5859 5855 5852 5848 5844 5840 5835 5831 5826 5822 5817 5812 5807 5802 5797 5792 5787 5782 5777 5772 5767 5762 5758 5754 5750 5747
5886 5887 5886 5885 5885 5885 5884 5883 5881 5880 5878 5877 5875 5872 5870 5867 5864 5861 5858 5855 5852 5848 5845 5841 5837 5833 5829 5824 5820 5815 5811 5806 5801 5796 5791 5786 5781 5776 5772 5767 5763 5759 5755 5752
5881 5882 5882 5881 5881 5881 5880 5879 5878 5877 5876 5874 5872 5870 5868 5865 5863 5860 5857 5854 5851 5848 5845 5841 5838 5834 5830 5826 5822 5818 5813 5809 5804 5800 5795 5790 5785 5781 5776 5772 5768 5764 5760 5757
5876 5877 5877 5877 5876 5876 5875 5875 5874 5873 5872 5870 5869 5867 5865 5863 5860 5858 5855 5853 5850 5847 5844 5841 5838 5834 5831 5827 5823 5819 5815 5811 5807 5803 5798 5794 5789 5785 5781 5777 5773 5769 5766 5763
5872 5872 5872 5872 5871 5871 5871 5870 5869 5868 5867 5866 5865 5863 5861 5859 5857 5855 5853 5850 5848 5845 5843 5840 5837 5834 5830 5827 5824 5820 5816 5813 5809 5805 5801 5797 5793 5789 5785 5781 5777 5774 5771 5768
5865 5866 5866 5866 5866 5865 5865 5864 5863 5863 5862 5861 5860 5858 5857 5855 5854 5852 5849 5847 5845 5843 5840 5838 5835 5832 5829 5826 5823 5820 5817 5813 5810 5806 5802 5799 5795 5792 5788 5785 5781 5778 5775 5772
5858 5858 5859 5859 5859 5859 5858 5858 5857 5856 5856 5855 5854 5853 5851 5850 5849 5847 5845 5843 5841 5839 5837 5835 5832 5830 5827 5824 5822 5819 5816 5813 5810 5807 5803 5800 5797 5794 5791 5787 5784 5781 5778 5776
5850 5851 5851 5851 5851 5851 5850 5850 5850 5849 5849 5848 5847 5846 5845 5844 5843 5842 5840 5838 5837 5835 5833 5831 5829 5827 5824 5822 5819 5817 5814 5812 5809 5806 5803 5800 5798 5795 5792 5789 5786 5784 5781 5779
5842 5842 5842 5842 5842 5842 5842 5841 5841 5841 5840 5840 5839 5838 5838 5837 5836 5835 5833 5832 5831 5829 5828 5826 5824 5822 5820 5818 5816 5814 5812 5809 5807 5805 5802 5800 5797 5795 5792 5790 5787 5785 5782 5780
5833 5833 5832 5832 5832 5832 5831 5831 5831 5831 5830 5830 5830 5829 5829 5828 5828 5827 5826 5825 5824 5823 5821 5820 5818 5817 5815 5813 5812 5810 5808 5806 5804 5802 5800 5798 5795 5793 5791 5789 5787 5785 5783 5781
5822 5822 5821 5821 5821 5821 5820 5820 5819 5819 5819 5819 5819 5819 5819 5818 5818 5817 5817 5816 5815 5815 5813 5812 5811 5810 5809 5807 5806 5804 5803 5801 5800 5798 5796 5795 5793 5791 5789 5787 5785 5783 5782 5780
5809 5809 5809 5809 5808 5808 5808 5807 5807 5807 5806 5806 5806 5807 5807 5807 5806 5806 5806 5806 5806 5805 5804 5803 5803 5802 5801 5800 5799 5798 5797 5796 5794 5793 5792 5790 5789 5787 5786 5784 5783 5781 5780 5778
5795 5795 5795 5795 5794 5794 5793 5793 5793 5793 5792 5792 5792 5793 5793 5794 5793 5793 5793 5794 5794 5794 5793 5792 5793 5793 5792 5791 5791 5790 5789 5789 5788 5787 5786 5785 5784 5782 5781 5780 5779 5777 5776 5775
5780 5780 5780 5779 5779 5778 5778 5778 5778 5777 5777 5776 5776 5777 5778 5778 5779 5779 5779 5781 5782 5780 5780 5780 5781 5781 5781 5781 5781 5781 5781 5780 5780 5779 5778 5778 5777 5776 5775 5775 5774 5773 5772 5771
5765 5764 5764 5764 5763 5763 5762 5761 5761 5760 5760 5760 5760 5760 5760 5761 5762 5763 5764 5765 5766 5766 5766 5767 5767 5768 5769 5769 5770 5770 5770 5770 5770 5770 5770 5770 5769 5769 5768 5768 5767 5767 5766 5765
5748 5748 5747 5747 5746 5746 5745 5744 5743 5743 5742 5742 5742 5742 5742 5743 5743 5745 5747 5748 5748 5749 5750 5752 5753 5753 5754 5755 5756 5757 5758 5759 5759 5760 5760 5760 5760 5760 5760 5760 5760 5759 5759 5758
5732 5731 5730 5730 5729 5728 5727 5726 5725 5724 5723 5723 5722 5722 5722 5723 5724 5725 5726 5728 5730 5731 5733 5735 5736 5737 5738 5739 5741 5743 5744 5745 5746 5747 5748 5749 5749 5750 5750 5750 5750 5750 5750 5750
5715 5714 5713 5712 5710 5709 5708 5707 5706 5705 5704 5703 5702 5701 5701 5702 5703 5704 5705 5707 5709 5711 5713 5715 5717 5719 5720 5723 5725 5727 5728 5730 5731 5733 5734 5735 5737 5737 5738 5739 5740 5740 5740 5741
5697 5696 5694 5693 5691 5690 5688 5687 5685 5684 5683 5682 5680 5679 5679 5679 5680 5681 5683 5684 5686 5688 5691 5694 5696 5698 5701 5704 5706 5708 5711 5713 5714 5716 5718 5720 5722 5723 5725 5726 5727 5728 5729 5729
5679 5677 5675 5673 5671 5669 5668 5666 5664 5662 5661 5660 5659 5657 5656 5656 5657 5657 5659 5660 5662 5665 5667 5670 5673 5676 5680 5683 5686 5688 5691 5694 5696 5699 5701 5703 5706 5708 5709 5711 5713 5714 5715 5716
Wind_Speed
4 3 2 1 1 3 5 6 8 10 12 14 15 17 19 21 22 22 24 25 26 27 28 29 29 28 28 28 28 28 29 28 27 25 24 22 20 18 15 12 9 8 6 3
3 3 2 2 1 3 4 6 7 9 11 13 15 16 18 20 21 22 23 24 25 26 27 28 28 29 29 28 28 28 28 28 28 27 25 24 21 19 17 14 12 9 7 4
3 4 3 3 3 3 4 5 7 8 10 12 14 16 17 19 20 21 22 23 24 25 26 26 27 28 28 29 28 28 28 28 28 28 26 25 23 21 20 17 15 13 10 7
4 4 4 4 4 4 4 5 7 8 10 12 13 15 16 18 19 20 21 22 23 24 25 26 26 27 27 28 28 28 28 28 28 27 27 26 25 23 22 20 18 15 11 8
5 5 5 5 5 5 6 6 7 8 9 11 13 14 15 17 18 19 20 21 22 23 24 25 26 26 26 27 28 28 28 28 28 27 27 26 26 25 24 22 20 17 14 11
6 6 6 6 6 6 6 7 7 8 9 11 12 13 15 16 17 18 19 20 20 22 23 24 24 25 25 26 27 28 28 28 28 28 27 26 26 25 24 23 21 19 16 14
7 7 8 8 7 7 7 7 8 9 10 11 12 13 14 15 16 17 17 18 19 20 21 22 23 24 24 24 25 26 27 27 27 27 27 26 26 25 24 23 22 20 18 16
9 10 10 9 9 9 9 9 9 9 10 11 12 12 13 14 15 16 17 18 18 19 20 21 22 22 23 23 24 24 25 26 27 27 26 26 26 25 25 24 23 21 19 17
12 12 12 11 11 11 11 11 11 11 11 12 12 13 13 14 14 15 16 17 17 18 18 19 20 21 21 22 22 23 23 24 25 25 25 25 25 25 25 24 23 22 20 19
14 14 14 14 13 13 13 13 13 13 13 13 13 13 13 14 14 15 15 16 16 17 17 18 18 19 19 20 20 21 21 22 23 23 24 24 24 24 24 23 23 22 21 20
17 17 17 17 16 16 16 16 16 15 15 15 15 15 15 15 15 15 15 15 16 16 16 17 17 18 18 18 19 19 20 20 21 21 22 22 22 22 23 23 22 21 20 20
20 19 19 19 19 19 19 19 19 18 18 17 17 16 16 16 16 16 16 16 16 16 16 16 16 16 17 17 17 18 18 19 19 20 20 20 20 20 20 20 20 20 19 18
22 22 22 22 22 22 22 22 21 21 20 20 19 19 18 18 18 18 18 17 17 17 17 17 16 16 16 16 16 16 17 17 17 18 18 18 18 18 18 18 18 18 17 17
25 25 25 25 25 25 25 24 24 24 23 23 22 22 21 21 21 20 20 19 19 18 18 17 17 17 17 16 16 16 15 16 16 16 16 16 16 16 15 15 16 16 16 15
29 29 29 28 28 28 28 28 27 27 27 26 26 26 25 24 23 23 23 22 22 21 20 19 19 18 17 17 16 16 15 15 15 15 14 14 14 14 14 13 13 13 13 13
32 32 32 32 32 32 32 32 31 31 30 30 29 29 29 28 27 26 26 25 25 24 23 22 21 20 19 18 18 17 16 15 15 14 14 13 13 13 12 12 11 11 11 11
34 35 36 36 36 36 36 36 36 35 35 34 34 33 32 32 31 30 30 29 28 27 26 26 25 23 22 21 20 19 18 17 16 15 14 14 13 12 12 11 11 10 9 9
37 38 39 39 40 40 40 40 40 40 39 39 38 37 36 36 35 34 34 33 31 30 30 29 28 27 25 24 23 21 20 19 18 17 16 15 14 13 13 12 11 10 9 9
41 41 42 42 43 43 44 44 44 44 44 43 43 41 40 39 39 38 38 36 35 34 34 33 32 31 30 28 27 25 23 22 21 20 19 17 16 15 14 13 12 11 11 10
43 44 44 45 46 46 46 47 47 48 48 48 47 46 45 44 43 42 42 40 38 38 38 37 36 34 33 33 31 29 27 26 24 23 22 20 19 18 17 16 14 14 13 12
46 46 47 47 48 49 49 50 50 50 51 51 51 50 49 48 48 47 46 44 42 42 42 41 39 38 37 36 35 33 32 30 28 27 25 24 22 21 20 19 17 16 16 15
48 48 49 49 50 51 51 52 52 53 53 53 53 53 53 52 52 51 50 48 47 47 46 45 43 42 41 40 39 37 36 34 33 31 30 28 26 25 23 22 21 20 19 18
48 48 49 50 51 51 52 53 54 54 55 55 55 56 56 56 56 55 54 53 52 51 50 49 47 46 45 44 43 41 40 39 37 36 34 32 31 29 27 26 25 24 22 22
48 49 50 51 52 53 54 54 55 56 57 57 58 58 58 57 57 58 58 57 56 55 54 53 52 51 50 48 47 45 44 43 41 40 39 37 35 34 32 31 29 28 27 26
52 53 53 54 55 56 56 56 57 57 58 58 59 60 60 60 60 59 60 60 60 59 58 57 56 55 54 53 51 50 48 47 46 44 43 41 40 38 37 35 34 33 31 30
53 54 55 56 56 57 58 59 59 59 59 60 60 61 62 62 62 62 61 61 62 62 62 61 60 59 58 57 56 55 53 52 51 49 47 46 44 43 41 40 39 37 36 35
54 55 56 57 57 58 59 60 60 60 60 60 60 61 61 62 62 62 62 62 62 63 63 64 63 62 62 61 60 59 58 57 55 54 52 51 49 48 46 45 43 42 41 39
Wind_Direction
188 201 224 255 343 6 11 15 14 13 13 14 14 14 14 14 15 15 16 17 18 20 20 21 22 23 23 22 23 24 24 24 23 22 22 21 21 21 19 15 9 359 350 334
201 216 233 253 312 346 358 4 9 9 10 12 13 13 13 14 14 15 16 17 18 19 20 21 22 23 23 23 24 24 25 25 25 24 24 24 25 25 24 20 16 11 5 355
217 234 249 270 296 318 338 351 357 1 3 5 7 9 11 12 12 12 14 15 17 17 18 18 20 21 22 22 23 24 25 25 25 26 26 27 28 28 28 27 25 24 24 19
224 241 261 272 284 302 319 334 344 350 353 355 358 2 6 8 9 11 12 13 14 15 16 18 18 19 20 22 22 23 24 24 24 26 28 29 29 29 29 28 28 29 32 32
234 246 260 271 284 295 308 320 330 339 344 348 351 356 360 2 5 7 9 11 12 14 15 17 18 19 20 21 22 23 24 24 25 27 28 28 29 30 30 29 30 31 34 35
245 251 260 270 280 291 302 311 320 326 332 338 344 349 354 355 358 1 5 7 10 12 14 15 17 18 19 21 21 22 23 24 25 27 28 28 29 30 31 32 33 34 37 39
254 258 262 267 275 284 293 305 314 321 326 331 336 342 346 350 352 356 359 2 5 8 10 12 14 16 18 19 20 21 22 24 25 26 28 29 30 30 31 33 34 35 39 43
257 261 263 266 273 279 288 297 307 313 319 324 328 332 337 341 345 349 353 355 359 2 6 8 10 12 14 16 18 19 21 22 24 25 27 29 31 32 33 33 35 37 40 43
258 261 264 268 273 278 284 290 297 303 309 314 318 322 327 330 335 340 344 348 351 354 358 1 4 6 9 12 14 16 18 20 22 24 26 28 30 31 33 34 36 38 41 44
256 258 263 267 272 275 280 285 289 294 300 305 310 313 317 321 324 329 334 338 341 345 349 353 356 359 2 5 8 10 13 16 18 21 24 26 28 30 32 34 36 38 41 44
259 262 265 267 271 274 277 280 284 288 293 297 301 305 308 312 315 319 323 326 331 335 339 342 346 350 353 357 0 3 6 9 12 15 19 22 25 28 30 33 35 37 41 46
261 264 266 268 272 275 277 279 281 284 287 290 293 296 299 303 306 310 312 315 319 323 327 331 334 338 342 347 351 355 359 3 7 9 13 17 22 25 28 30 33 35 38 42
264 265 266 267 270 272 274 276 278 280 282 284 286 289 292 294 297 300 303 306 309 312 315 318 322 326 330 335 340 345 350 354 358 2 6 10 16 20 24 27 30 33 35 38
266 266 267 269 270 272 274 275 277 278 279 281 282 284 285 287 290 292 294 297 299 302 305 308 311 314 318 322 327 332 337 342 347 352 356 1 5 11 16 20 24 29 32 35
267 268 269 270 271 272 274 275 276 277 278 279 280 281 282 283 284 286 287 289 291 293 295 298 300 303 307 310 314 318 323 327 333 339 344 349 353 358 3 9 14 18 23 28
266 268 269 270 271 271 272 273 274 275 276 277 277 278 279 279 280 281 282 283 284 286 287 289 291 293 296 299 302 306 309 313 318 323 329 334 339 343 348 353 359 3 8 13
263 265 267 268 269 270 271 272 273 273 274 274 275 275 276 276 277 277 278 279 280 281 281 282 283 285 287 289 292 295 298 301 304 308 313 318 322 327 332 336 341 346 351 355
263 264 265 266 268 269 270 271 272 272 273 273 273 273 274 274 274 274 275 275 276 277 277 277 278 279 279 281 283 285 288 290 293 295 299 303 307 310 314 318 321 326 329 332
264 265 265 266 267 267 268 269 270 271 271 271 272 271 271 271 272 272 272 272 273 273 273 274 274 274 275 275 276 278 280 282 284 286 288 291 294 297 299 302 305 307 309 311
266 266 266 267 267 268 268 269 269 269 270 270 270 270 270 270 269 270 270 270 270 270 269 270 271 271 271 272 272 273 274 275 277 278 280 282 284 286 288 290 291 293 295 296
267 267 267 268 268 269 269 269 270 269 270 270 270 270 269 268 268 267 267 267 267 266 267 267 267 268 268 269 269 269 270 270 272 273 274 276 277 278 279 281 283 284 285 286
269 269 270 270 270 270 270 271 271 271 270 270 270 270 269 268 267 266 266 265 264 264 264 264 265 265 265 266 267 267 267 267 268 269 269 270 272 273 274 275 276 277 279 280
272 272 272 272 272 272 272 271 271 271 271 271 270 269 269 268 267 266 264 263 262 262 262 261 261 261 262 263 264 264 265 265 265 265 266 266 267 268 269 270 271 272 273 275
274 274 274 275 274 274 273 273 273 273 272 272 271 270 269 268 267 266 265 263 261 260 260 260 259 259 259 259 260 261 262 262 263 263 263 264 264 265 266 267 267 268 269 271
276 277 277 277 277 277 276 276 276 275 274 273 272 271 270 269 267 265 263 262 261 260 259 258 257 257 257 257 257 258 258 259 260 260 261 262 262 263 264 264 265 266 267 268
279 279 279 279 279 279 279 278 278 277 276 275 274 273 271 269 268 266 264 262 260 259 258 257 256 256 255 255 255 255 256 256 257 258 258 259 260 260 261 262 263 264 265 266
281 281 281 281 281 281 281 280 280 279 278 276 275 273 272 270 268 266 264 262 260 258 257 256 255 254 253 253 253 253 254 254 255 255 256 257 257 258 259 260 261 261 262 264